Regional Weather Roundup
Issued by NWS

Home | Current Version | Previous Version | Text Only | Print | Product List | Glossary On
Versions: 1 2 3 4 5 6 7 8 9 10 11 12 13 14 15 16 17 18 19 20 21 22 23 24 25 26 27 28 29 30 31 32 33 34 35 36 37 38 39 40 41 42 43 44 45 46 47 48 49 50
000
ASUS43 KBIS 202120
RWRND

NORTH DAKOTA REGIONAL WEATHER ROUNDUP
NATIONAL WEATHER SERVICE BISMARCK ND
400 PM CDT WED AUG 20 2014

NOTE: "FAIR" INDICATES FEW OR NO CLOUDS BELOW 12,000 FEET WITH NO
SIGNIFICANT WEATHER AND/OR OBSTRUCTIONS TO VISIBILITY.


NDZ001>003-009>011-017-202200-
NORTHWEST NORTH DAKOTA

CITY           SKY/WX    TMP DP  RH WIND       PRES   REMARKS
WILLISTON      LGT RAIN  72  66  81 SE5       29.73F
MINOT          CLOUDY    80  61  52 S14       29.71S
MINOT AFB      CLOUDY    84  63  49 S15       29.70S
$$

NDZ018>021-031>035-040>046-202200-
SOUTHWEST NORTH DAKOTA

CITY           SKY/WX    TMP DP  RH WIND       PRES   REMARKS
BISMARCK       LGT RAIN  78  69  73 CALM      29.72S
DICKINSON      TSTM      69  66  90 NE10      29.75R
GARRISON         N/A     76  66  71 E8        29.73F
HETTINGER ARPT TSTM      73  68  84 S6        29.71R
$$

NDZ004>008-012>016-024-026-027-054-202200-
NORTHEAST NORTH DAKOTA

CITY           SKY/WX    TMP DP  RH WIND       PRES   REMARKS
GRAND FORKS    PTSUNNY   83  67  58 SE14      29.77F
GRND FRKS AFB  PTSUNNY   83  69  62 SE14      29.78F
DEVILS LAKE    CLOUDY    82  64  54 S15       29.74F
$$

NDZ022-023-025-028>030-036>039-047>053-202200-
SOUTHEAST NORTH DAKOTA

CITY           SKY/WX    TMP DP  RH WIND       PRES   REMARKS
FARGO          PTSUNNY   83  67  58 SE13      29.78F
JAMESTOWN      CLOUDY    80  67  64 SE14G22   29.75F
$$



USA.gov is the U.S. government's official web portal to all federal, state and local government web resources and services.